Regional Weather Roundup
Issued by NWS Austin/San Antonio, TX

Home | Current Version | Previous Version | Text Only | Print | Product List | Glossary On
Versions: 1 2 3 4 5 6 7 8 9 10 11 12 13 14 15 16 17 18 19 20 21 22 23 24 25 26 27 28 29 30 31 32 33 34 35 36 37 38 39 40 41 42 43 44 45 46 47 48 49 50
000
ASUS44 KEWX 281211
RWREWX
SOUTH TEXAS REGIONAL WEATHER ROUNDUP
NATIONAL WEATHER SERVICE AUSTIN/SAN ANTONIO TX
700 AM CDT FRI APR 28 2017

NOTE: "FAIR" INDICATED FEW OR NO CLOUDS BELOW 12,000 FEET WITH NO
SIGNIFICANT WEATHER AND/OR OBSTRUCTIONS TO VISIBILITY.

* - THESE STATIONS ARE NOT NWS OR FAA STATIONS...AND ARE NOT SUBJECT
    TO NWS AND FAA QUALITY CONTROL.

TXZ171-172-183>190-281300-
TEXAS HILL COUNTRY AND EDWARDS PLATEAU

CITY           SKY/WX    TMP DP  RH WIND       PRES   REMARKS
JUNCTION       CLOUDY    70  64  81 SW6       29.62R
6HR MIN TEMP:  69; 6HR MAX TEMP:  74;

*LLANO         PTCLDY    63  61  94 CALM      29.65R
BURNET         CLOUDY    68  63  84 SW6       29.64R
6HR MIN TEMP:  66; 6HR MAX TEMP:  69;

*HORSESHOE BAY CLOUDY    69  64  85 CALM      29.62R
6HR MIN TEMP:  67; 6HR MAX TEMP:  70;

*KERRVILLE     CLOUDY    68  65  92 S8        29.65R
6HR MIN TEMP:  66; 6HR MAX TEMP:  69;

*FREDERICKSBRG CLOUDY    68  62  82 SW10      29.64R
6HR MIN TEMP:  66; 6HR MAX TEMP:  69;

*ROCKSPRINGS   CLOUDY    66  64  94 S9        29.66S FOG
*BOERNE STAGE  CLOUDY    68  64  88 S9        29.64R
*CASTROVILLE   CLOUDY    71  68  89 CALM      29.62R FOG
HONDO          CLOUDY    71  67  87 CALM      29.62R
6HR MIN TEMP:  70; 6HR MAX TEMP:  72; 6HR PCP: TRACE;

*UVALDE        CLOUDY    68  66  93 CALM      29.62S
6HR MIN TEMP:  68; 6HR MAX TEMP:  70;

DEL RIO        CLOUDY    71  68  90 E9        29.57R
6HR MIN TEMP:  71; 6HR MAX TEMP:  76;

LAUGHLIN AFB   CLOUDY    71  69  91 SE9       29.58S
6HR MIN TEMP:  71; 6HR MAX TEMP:  75;

CARRIZO SPRGS  CLOUDY    72  70  94 E3        29.57S
*EAGLE PASS    NOT AVBL
$$

TXZ173-191>194-202-209-217>225-228-281300-
CENTRAL AND SOUTH CENTRAL TEXAS

CITY           SKY/WX    TMP DP  RH WIND       PRES   REMARKS
GEORGETOWN     CLOUDY    72  63  73 S15       29.60R
AUSTIN/BERGSTM CLOUDY    73  68  84 S7        29.59R FOG
6HR MIN TEMP:  71; 6HR MAX TEMP:  73;

AUSTIN/MABRY   CLOUDY    73  67  81 VRB6      29.60R
6HR MIN TEMP:  70; 6HR MAX TEMP:  73;

*AUSTIN/EXEC   CLOUDY    72  68  88 S7        29.60R
*LAGO VISTA    CLOUDY    71  66  84 S12G18    29.61R
6HR MIN TEMP:  68; 6HR MAX TEMP:  71;

SAN MARCOS     CLOUDY    70  66  88 S9        29.60S FOG
NEW BRAUNFELS  CLOUDY    71  68  90 S8        29.58S FOG
6HR MIN TEMP:  69; 6HR MAX TEMP:  72;

RANDOLPH AFB   CLOUDY    70  70 100 S8        29.60R
6HR MIN TEMP:  67; 6HR MAX TEMP:  71;

PT SAN ANTONIO CLOUDY    72  68  88 SE7       29.58S
6HR MIN TEMP:  70; 6HR MAX TEMP:  72;

SAN ANTONIO    CLOUDY    72  67  84 S8        29.60S
6HR MIN TEMP:  70; 6HR MAX TEMP:  72;

STINSON FIELD  CLOUDY    73  68  84 SE6       29.58R
6HR MIN TEMP:  72; 6HR MAX TEMP:  73;

*LA GRANGE     CLOUDY    73  71  95 S9        29.59S FOG
6HR MIN TEMP:  71; 6HR MAX TEMP:  73;

*GIDDINGS      CLOUDY    72  68  88 S8        29.61S
6HR MIN TEMP:  70; 6HR MAX TEMP:  72;

*GONZALES      CLOUDY    73  72  98 SE6       29.60S
6HR MIN TEMP:  72; 6HR MAX TEMP:  74;

$$

TXZ163>164-176>182-195>201-210>213-226-227-235-281300-
SOUTHEAST TEXAS

CITY           SKY/WX    TMP DP  RH WIND       PRES   REMARKS
COLLEGE STN    CLOUDY    73  70  90 S15       29.60S
6HR MIN TEMP:  70; 6HR MAX TEMP:  73;

*BRYAN         CLOUDY    72  71  96 S12G17    29.62R
6HR MIN TEMP:  69; 6HR MAX TEMP:  72;

*CALDWELL      NOT AVBL
*CROCKETT      MOCLDY    72  68  88 S8        29.65S FOG
*BRENHAM       CLOUDY    73  71  95 SE6       29.62S FOG
6HR MIN TEMP:  71; 6HR MAX TEMP:  73;

HUNTSVILLE     MOCLDY    73  69  87 SE6       29.62S FOG
6HR MIN TEMP:  70; 6HR MAX TEMP:  73;

CONROE         CLOUDY    72  70  93 SE7       29.65R FOG
6HR MIN TEMP:  68; 6HR MAX TEMP:  72;

HOUSTON BUSH   CLOUDY    77  71  82 S10       29.64R HAZE
6HR MIN TEMP:  74; 6HR MAX TEMP:  78;

HOUSTON HOBBY  MOCLDY    75  73  93 S9        29.64R
6HR MIN TEMP:  74; 6HR MAX TEMP:  76;

*HOUSTON SW AP PTCLDY    73  70  93 CALM      29.65R FOG
6HR MIN TEMP:  73; 6HR MAX TEMP:  74;

PEARLAND       CLOUDY    78  74  87 S9        29.66R FOG
6HR MIN TEMP:  77; 6HR MAX TEMP:  78;

HOUSTON HOOKS  MOCLDY    77  70  79 S8G20     29.64R
6HR MIN TEMP:  73; 6HR MAX TEMP:  77;

ELLINGTON FLD  CLOUDY    77  73  88 S8        29.66R
SUGAR LAND     CLOUDY    76  73  91 S8        29.64R FOG
6HR MIN TEMP:  74; 6HR MAX TEMP:  77;

*HOUSTON EXEC  CLOUDY    73  72  94 S8        29.65R FOG
*CLEVELAND MUN CLOUDY    75  72  91 S7        29.66R FOG
6HR MIN TEMP:  70; 6HR MAX TEMP:  75;

*WHARTON       CLEAR     72  70  92 SE7       29.64R FOG
6HR MIN TEMP:  72; 6HR MAX TEMP:  74;

*COLUMBUS      CLOUDY    74  71  91 S8        29.64R
6HR MIN TEMP:  70; 6HR MAX TEMP:  74;

*EAGLE LAKE    CLOUDY    75  73  95 S7        29.63R FOG
6HR MIN TEMP:  72; 6HR MAX TEMP:  75;

$$

TXZ214>216-236>238-281300-
THE UPPER TEXAS COAST

CITY           SKY/WX    TMP DP  RH WIND       PRES   REMARKS
*ORANGE        CLOUDY    76  74  93 S9        29.72R FOG
6HR MIN TEMP:  75; 6HR MAX TEMP:  76;

PORT ARTHUR    CLOUDY    77  73  87 S16G24    29.68R FOG
6HR MIN TEMP:  76; 6HR MAX TEMP:  77;

GALVESTON      MOCLDY    77  75  93 S14       29.67R FOG
6HR MIN TEMP:  77; 6HR MAX TEMP:  78;

ANGLETON       CLOUDY    76  73  91 S12       29.65R FOG
6HR MIN TEMP:  76; 6HR MAX TEMP:  78;

*BAY CITY      CLEAR     74  74  98 SE7       29.63S FOG
PALACIOS       CLEAR     74  72  93 SE9       29.62R FOG
6HR MIN TEMP:  74; 6HR MAX TEMP:  78;

$$

TXZ229>234-239>247-281300-
TEXAS COASTAL BEND AND RIO GRANDE PLAINS

CITY           SKY/WX    TMP DP  RH WIND       PRES   REMARKS
VICTORIA       CLOUDY    73  71  93 SE9       29.62R FOG
6HR MIN TEMP:  72; 6HR MAX TEMP:  75;

*BEEVILLE      CLOUDY   N/A N/A N/A SE7       29.60R
ROCKPORT       PTCLDY    75  71  87 S7        29.58F FOG
6HR MIN TEMP:  75; 6HR MAX TEMP:  77;

*PORT ARANSAS  CLEAR     75  72  90 S12       29.59R FOG
6HR MIN TEMP:  75; 6HR MAX TEMP:  76;

*PORT LAVACA   MOCLDY    73  73 100 CALM      29.61S FOG
6HR MIN TEMP:  73; 6HR MAX TEMP:  75;

*INGLESIDE     CLEAR     76  72  88 S7        29.58S FOG
CORPUS CHRISTI MOCLDY    74  72  93 SE8       29.58R
6HR MIN TEMP:  74; 6HR MAX TEMP:  77;

CORPUS NAS     MOCLDY    76  70  82 S12       29.58R
6HR MIN TEMP:  76; 6HR MAX TEMP:  78;

*ROBSTOWN      CLOUDY    75  75 100 SE5       29.58S
6HR MIN TEMP:  75; 6HR MAX TEMP:  78;

ALICE          CLOUDY    73  70  90 SE8       29.57S
6HR MIN TEMP:  73; 6HR MAX TEMP:  76;

KINGSVILLE NAS MOCLDY    73  72  96 SE9       29.57R
6HR MIN TEMP:  73; 6HR MAX TEMP:  78;

COTULLA        PTCLDY    71  68  90 NW3       29.58R
6HR MIN TEMP:  71; 6HR MAX TEMP:  74;

*FAITH RANCH   CLOUDY    73  70  88 SE6G12    29.57S
LAREDO         CLOUDY    73  70  90 SE13      29.55S
6HR MIN TEMP:  72; 6HR MAX TEMP:  74;

$$

TXZ248>255-281300-
DEEP SOUTH TEXAS

CITY           SKY/WX    TMP DP  RH WIND       PRES   REMARKS
BROWNSVILLE    CLOUDY    77  74  90 S13       29.60R
6HR MIN TEMP:  76; 6HR MAX TEMP:  78;

PORT ISABEL    CLOUDY    77  74  90 S15G23    29.59R FOG
6HR MIN TEMP:  76; 6HR MAX TEMP:  77;

*SOUTH PADRE   NOT AVBL
HARLINGEN      CLOUDY    75  74  96 S15       29.57R FOG
6HR MIN T



USA.gov is the U.S. government's official web portal to all federal, state and local government web resources and services.